Flag for Austria Weather past 2 weeks in Jennersdorf, Burgenland, Austria

Now
37 °F

Chilly.


Feels Like: 37 °F
Forecast: 36 / 53 °F
Wind: No wind

Location: Murska Sobota

Current Time: Oct 26, 2014 at 1:52:43 AM

Latest Report: Oct 26, 2014 at 1:00 AM


Visibility: N/A

Pressure: 30.34 "Hg

Humidity: 98%

Dew point: 37 °F

Location of JennersdorfLocation

Historic Weather in Jennersdorf — Graph

°F

Jennersdorf temperature yesterday

Maximum temperature yesterday: 47 °F (at 4:00 PM)
Minimum temperature yesterday: 39 °F (at 11:00 PM)
Average temperature yesterday: 45 °F

Past Weeks' High & Low Weather Summary

 TemperatureHumidityPressure
High79 °F (Oct 11, 3:00 PM)100% (Oct 11, 6:00 AM)30.35 "Hg (Oct 11, 6:00 AM)
Low38 °F (Oct 26, 12:00 AM)44% (Oct 14, 3:00 PM)29.61 "Hg (Oct 22, 1:00 AM)
Average58 °F84%29.97 "Hg
* Reported Midnight between Oct 10 and Oct 11 — Midnight between Oct 25 and Oct 26, Jennersdorf, Weather by CustomWeather, © 2014

Note: Actual official high and low records may vary slightly from our data, if they occured in-between our weather recording intervals... More about our weather records

Advertising

Jennersdorf weather history for previous 24 hours

 ConditionsComfort  
Time TempWeatherWind HumidityBarometerVisibility
12:00 AM
Oct 26
38 °FChilly.No wind98%30.34 "HgN/A
11:00 PM
Oct 25
39 °FChilly.No wind96%30.33 "HgN/A
10:00 PM42 °FQuite cool.2 mph94%30.32 "HgN/A
9:00 PM44 °FQuite cool.1 mph92%30.32 "HgN/A
8:00 PM45 °FFog.1 mph88%30.31 "Hg5 mi
7:00 PM46 °FCool.1 mph87%30.30 "HgN/A
6:00 PM46 °FCool.2 mph85%30.29 "HgN/A
5:00 PM46 °FCool.2 mph87%30.29 "HgN/A
4:00 PM47 °FCool.1 mph85%30.29 "HgN/A
3:00 PM46 °FOvercast.1 mph86%30.29 "Hg6 mi
2:00 PM46 °FOvercast.1 mph87%30.29 "Hg6 mi
1:00 PM46 °FOvercast.1 mph88%30.29 "Hg6 mi
12:00 PM46 °FOvercast.2 mph89%30.29 "Hg6 mi
11:00 AM46 °FFog.1 mph90%30.29 "Hg1 mi
10:00 AM45 °FFog.2 mph92%30.28 "Hg1 mi
9:00 AM44 °FFog.1 mph97%30.28 "Hg1 mi
8:00 AM44 °FFog.1 mph97%30.26 "Hg1 mi
7:00 AM44 °FFog.2 mph94%30.24 "Hg2 mi
6:00 AM44 °FFog.2 mph94%30.24 "Hg2 mi
5:00 AM44 °FFog.2 mph94%30.23 "Hg2 mi
4:00 AM44 °FQuite cool.2 mph94%30.22 "HgN/A
3:00 AM45 °FQuite cool.2 mph92%30.23 "HgN/A
2:00 AM45 °FCool.2 mph90%30.22 "HgN/A
1:00 AM45 °FCool.3 mph92%30.22 "HgN/A
Weather by CustomWeather, © 2014

See weather overviewHow to use our weather pages